Weather History for Ann Arbor, MI

Change the Weather History Date:

Wednesday, October 16, 2013

  Actual Average Record
Temperature  
Mean Temperature 56 °F -  
Max Temperature 63 °F 58 °F 75 °F (1999)
Min Temperature 51 °F 35 °F 21 °F (2002)
Degree Days  
Heating Degree Days 8    
Growing Degree Days 6 (Base 50)    
Moisture  
Dew Point 52 °F    
Average Humidity 84    
Maximum Humidity 100    
Minimum Humidity 55    
Precipitation  
Precipitation 0.00 in - - ()
Sea Level Pressure  
Sea Level Pressure 29.85 in    
Wind  
Wind Speed 9 mph (WSW)    
Max Wind Speed 20 mph    
Max Gust Speed 24 mph    
Visibility 7 miles    
Events      
Averages and records for this station are not official NWS values.
T = Trace of Precipitation, MM = Missing Value Source: NWS Daily Summary

Daily Weather History Graph

Daily Weather History Graph

Search for Another Location

Airport:

Trip Planner

Search our weather history database for the weather conditions in past years. The results will help you decide how hot, cold, wet, or windy it might be!

Date:

Astronomy

Oct. 16, 2013 Rise Set
Actual Time 7:49 AM EDT 6:51 PM EDT
Civil Twilight 7:20 AM EDT 7:19 PM EDT
Nautical Twilight 6:48 AM EDT 7:51 PM EDT
Astronomical Twilight 6:15 AM EDT 8:24 PM EDT
Moon 5:32 PM EDT (10/16) 5:13 AM EDT (10/16)
Length of Visible Light 11h 58m
Length of Day
11h 02m
Waxing Gibbous, 94% of the Moon is Illuminated
Oct 16
Waxing Gibbous
Oct 18
Full
Oct 26
Last Quarter
Nov 3
New
Nov 10
First Quarter

Hourly Weather History & Observations

Time (EDT) Temp. Dew Point Humidity Pressure Visibility Wind Dir Wind Speed Gust Speed Precip Events Conditions
12:28 AM 62.6 °F 60.8 °F 94% 29.84 in 5.0 mi SW 10.4 mph - N/A   Overcast
12:40 AM 62.6 °F 60.8 °F 94% 29.84 in 6.0 mi SW 8.1 mph - N/A   Mostly Cloudy
12:53 AM 62.1 °F 60.1 °F 93% 29.83 in 5.0 mi SW 6.9 mph - N/A   Mostly Cloudy
1:43 AM 62.6 °F 60.8 °F 94% 29.84 in 6.0 mi SW 8.1 mph - N/A   Mostly Cloudy
1:53 AM 62.1 °F 60.1 °F 93% 29.84 in 6.0 mi SW 8.1 mph - N/A   Mostly Cloudy
2:28 AM 60.8 °F 59.0 °F 94% 29.84 in 5.0 mi SW 5.8 mph - N/A   Scattered Clouds
2:53 AM 60.1 °F 57.9 °F 93% 29.84 in 4.0 mi SW 5.8 mph - N/A   Partly Cloudy
3:53 AM 57.9 °F 57.0 °F 97% 29.83 in 4.0 mi SW 4.6 mph - N/A   Partly Cloudy
4:22 AM 57.2 °F 57.2 °F 100% 29.82 in 2.0 mi SSW 6.9 mph - N/A   Clear
4:36 AM 59.0 °F 57.2 °F 94% 29.82 in 3.0 mi SW 5.8 mph - N/A   Scattered Clouds
4:53 AM 59.0 °F 57.9 °F 96% 29.82 in 4.0 mi SSW 5.8 mph - N/A   Scattered Clouds
5:00 AM 57.2 °F 57.2 °F 100% 29.82 in 3.0 mi South 4.6 mph - N/A   Mostly Cloudy
5:09 AM 57.2 °F 57.2 °F 100% 29.82 in 2.5 mi SSW 5.8 mph - N/A   Scattered Clouds
5:29 AM 57.2 °F 55.4 °F 94% 29.81 in 1.2 mi SW 3.5 mph - N/A   Clear
5:40 AM 55.4 °F 55.4 °F 100% 29.82 in 2.0 mi SSW 5.8 mph - N/A   Clear
5:49 AM 57.2 °F 55.4 °F 94% 29.82 in 3.0 mi South 5.8 mph - N/A   Partly Cloudy
5:53 AM 57.0 °F 55.9 °F 96% 29.82 in 2.5 mi SSW 6.9 mph - N/A   Scattered Clouds
6:03 AM 57.2 °F 57.2 °F 100% 29.82 in 2.5 mi South 6.9 mph - N/A   Mostly Cloudy
6:10 AM 57.2 °F 57.2 °F 100% 29.82 in 3.0 mi SSW 4.6 mph - N/A   Mostly Cloudy
6:32 AM 57.2 °F 55.4 °F 94% 29.83 in 8.0 mi West 6.9 mph - N/A   Overcast
6:53 AM 57.0 °F 53.1 °F 87% 29.83 in 10.0 mi West 8.1 mph - N/A   Overcast
7:28 AM 53.6 °F 51.8 °F 94% 29.84 in 10.0 mi West 4.6 mph - N/A   Mostly Cloudy
7:53 AM 53.1 °F 50.0 °F 89% 29.84 in 10.0 mi WSW 5.8 mph - N/A   Mostly Cloudy
8:06 AM 51.8 °F 48.2 °F 88% 29.84 in 10.0 mi West 5.8 mph - N/A   Scattered Clouds
8:53 AM 54.0 °F 50.0 °F 86% 29.85 in 10.0 mi WSW 8.1 mph - N/A   Clear
9:53 AM 55.9 °F 48.0 °F 75% 29.85 in 10.0 mi West 13.8 mph - N/A   Clear
10:53 AM 57.9 °F 48.0 °F 70% 29.85 in 10.0 mi WSW 11.5 mph - N/A   Mostly Cloudy
11:08 AM 57.2 °F 44.6 °F 63% 29.85 in 10.0 mi WSW 13.8 mph 24.2 mph N/A   Scattered Clouds
11:53 AM 59.0 °F 44.1 °F 58% 29.85 in 10.0 mi West 15.0 mph - N/A   Partly Cloudy
12:53 PM 60.1 °F 45.0 °F 57% 29.85 in 10.0 mi West 17.3 mph 23.0 mph N/A   Partly Cloudy
1:53 PM 60.1 °F 44.1 °F 55% 29.85 in 10.0 mi West 19.6 mph 23.0 mph N/A   Scattered Clouds
2:53 PM 57.0 °F 42.1 °F 57% 29.85 in 10.0 mi West 17.3 mph - N/A   Scattered Clouds
3:53 PM 57.0 °F 44.1 °F 62% 29.85 in 10.0 mi West 17.3 mph - N/A   Overcast
4:53 PM 55.0 °F 44.1 °F 67% 29.85 in 10.0 mi West 13.8 mph - N/A   Overcast
5:37 PM 53.6 °F 44.6 °F 72% 29.86 in 10.0 mi West 13.8 mph 19.6 mph N/A   Overcast
5:53 PM 54.0 °F 44.1 °F 69% 29.87 in 10.0 mi West 12.7 mph - N/A   Overcast
6:53 PM 53.1 °F 45.0 °F 74% 29.88 in 10.0 mi WSW 12.7 mph - N/A   Overcast
7:53 PM 52.0 °F 45.0 °F 77% 29.89 in 10.0 mi WSW 9.2 mph - N/A   Overcast
8:53 PM 52.0 °F 45.0 °F 77% 29.91 in 10.0 mi WSW 9.2 mph - N/A   Overcast
9:53 PM 52.0 °F 45.0 °F 77% 29.91 in 10.0 mi WSW 9.2 mph - N/A   Overcast
10:53 PM 52.0 °F 45.0 °F 77% 29.92 in 10.0 mi SW 6.9 mph - N/A   Overcast
11:53 PM 51.1 °F 45.0 °F 80% 29.91 in 10.0 mi WSW 5.8 mph - N/A   Overcast